Regional Weather Roundup
Issued by NWS

Home | Current Version | Previous Version | Graphics & Text | Print | Product List | Glossary On
Versions: 1 2 3 4 5 6 7 8 9 10 11 12 13 14 15 16 17 18 19 20 21 22 23 24 25 26 27
000
ASUS45 KTFX 232310
RWRMT
MONTANA REGIONAL WEATHER ROUNDUP
NATIONAL WEATHER SERVICE GREAT FALLS MT
400 PM MST FRI FEB 23 2018

NOTE: "FAIR" INDICATES FEW OR NO CLOUDS BELOW 12000 FEET WITH NO
SIGNIFICANT WEATHER AND/OR OBSTRUCTIONS TO VISIBILITY.

MTZ001>007-043-240000-
WEST OF THE DIVIDE

CITY           SKY/WX    TMP DP  RH WIND       PRES   REMARKS
KALISPELL      CLOUDY    18  12  77 SW5       30.10S
MISSOULA       CLOUDY    22  11  62 NW5       30.10F
BUTTE          FAIR      20   5  52 NW8       29.91F WCI  10
MULLAN PASS    LGT SNOW   8   6  92 VRB5      29.95S FOG
ANACONDA         N/A     14   3  62 N5        29.96F
DEER LODGE       N/A     16   5  62 SW3       29.99F
HAMILTON         N/A     27   3  36 MISG      30.08F
RONAN            N/A     23   7  50 S6        30.13F WCI  16
$$

MTZ008-052>055-240000-
SOUTHWEST MONTANA

CITY           SKY/WX    TMP DP  RH WIND       PRES   REMARKS
BOZEMAN        FAIR      14   5  67 CALM      29.96F
DILLON         FAIR      14   8  77 S15       29.94F WCI  -1
ENNIS          SUNNY     21   7  53 SW5       29.97S
W YELLOWSTONE  FAIR      19   9  63 SW13G20   29.88S WCI   7
THREE FORKS      N/A     19   7  60 SE1       29.96F
$$

MTZ009-010-012-014-046-048-049-054-240000-
EAST SLOPES AND CENTRAL MONTANA

CITY           SKY/WX    TMP DP  RH WIND       PRES   REMARKS
CUT BANK       FAIR      18  11  74 W36G45    29.73S HAZE    WCI  -3
GREAT FALLS    FAIR      21   9  59 SW31G38   29.83F WCI   2
MALMSTROM AFB  FAIR      22  11  62 SW30G36   29.85F WCI   4
HELENA         FAIR      22   9  57 S6        29.95F WCI  14
AUGUSTA          N/A     17  10  72 W24       29.77F WCI  -1
BOWMANS CRNR   FLURRIES  16   8  72 SW24      29.80F WCI  -3
CHOTEAU          N/A     21   9  58 SW21      29.77F WCI   6
FAIRFIELD      FAIR      20   9  62 SW24G31   29.78F WCI   3
POWER          FAIR      18  10  71 SW21      29.80F WCI   1
RAYNESFORD     FAIR      25   6  43 SW12      29.82F WCI  14
ULM            FAIR      21  10  63 SW23      29.85F WCI   5
WHITE SULPHUR    N/A     18   7  62 S17G25    29.85F WCI   2
$$

MTZ011-013-016-021-045-047-050-051-240000-
NORTH CENTRAL MONTANA

CITY           SKY/WX    TMP DP  RH WIND       PRES   REMARKS
HAVRE          FAIR       8   1  73 NE5       29.85F
LEWISTOWN      FAIR      22  11  62 SW17      29.81F WCI   8
N BAR RANCH    FAIR      28  -4  24 W10       29.84S WCI  19
CHINOOK          N/A      3  -6  66 E13       29.90F WCI -14
GEYSER         FAIR      23   9  53 W16       29.80F WCI  10
STANFORD       FAIR      22   9  58 N7        29.78F WCI  13
WINIFRED       FAIR      23  13  65 W8        29.82F WCI  13
$$

MTZ017>020-022>027-061-062-240000-
NORTHEAST MONTANA

CITY           SKY/WX    TMP DP  RH WIND       PRES   REMARKS
GLASGOW        FAIR       7   0  73 SE10      29.96F WCI  -8
GLENDIVE       FAIR       6  -2  69 SW12      30.06F WCI  -9
JORDAN           N/A     11   3  70 SW13      29.96F WCI  -4
MALTA          SUNNY      0  -6  78 NE5       29.94F
SIDNEY         FAIR       9  -1  64 SW20      30.08F WCI -10
WOLF POINT     FAIR      10   0  63 N6        30.03F WCI   0
PLENTYWOOD       N/A     10   3  72 SE9       30.01F WCI  -2
POPLAR           N/A     14   1  57 S7        30.03F WCI   4
$$

MTZ028>42-056>058-240000-
SOUTHCENTRAL AND SOUTHEAST MONTANA

CITY           SKY/WX    TMP DP  RH WIND       PRES   REMARKS
BAKER          FAIR       9   5  84 SE9       30.04F WCI  -4
BILLINGS       FAIR      23   7  50 SW15      29.94F WCI  10
LIVINGSTON     FAIR      25  11  55 W7        29.91F WCI  17
MILES CITY     FAIR       5  -1  76 SE12      30.04F WCI -11
BIG TIMBER     SUNNY     23  10  58 W22       29.91F WCI   8
FORSYTH          N/A     14   3  62 SE3       30.00F
HARLOWTON      FAIR      20  11  66 W22       29.87F WCI   4
LAUREL           N/A     21   9  58 SW14      29.96F WCI   8
$$

REGIONAL REPORTS...DAKOTAS

CITY           SKY/WX    TMP DP  RH WIND       PRES   REMARKS
WILLISTON      FAIR      12   2  64 S12       30.08F WCI  -2
MINOT          FAIR      17   7  64 SW10      30.12F WCI   5
DICKINSON      FAIR      17   4  56 S10       30.05F WCI   5
BEACH          FAIR      12   5  73 SE8       30.08  WCI   1
CROSBY         FAIR      10   5  79 SW15      30.05F WCI  -6
TIOGA          FAIR       9   7  92 S6        30.06F WCI  -1
WATFORD CITY   FAIR      16   5  62 CALM      30.08F
BISMARCK       FAIR      19   7  59 SW7       30.19F WCI  10
GRAND FORKS    FAIR      17   9  70 W13       30.20S WCI   4
FARGO          FAIR      14   7  73 W7        30.24R WCI   4
BUFFALO SD       N/A     10   2  69 SE6       30.01F WCI   0
RAPID CITY     FAIR      17   7  64 SE14      30.08F WCI   3
$$

REGIONAL REPORTS...WYOMING/IDAHO/WASHINGTON

CITY           SKY/WX    TMP DP  RH WIND       PRES   REMARKS
GILLETTE       FAIR      22  11  62 S22       29.95S WCI   6
SHERIDAN       FAIR      12   4  70 S5        29.96F
BUFFALO WY     FAIR      21   7  54 CALM      29.91S
CODY           FAIR      18   9  68 NE5       29.91F
YELLOWSTONE LA   N/A     16   2  54 W8G16     29.85F WCI   5
IDAHO FALLS    LGT SNOW  22  14  71 SW18      30.07S WCI   7
SALMON         FAIR      26  10  50 N6        30.07F WCI  19
BOISE          FAIR      30  10  43 NW12      30.24F WCI  20
SPOKANE        CLOUDY    25  13  60 SW16      30.20F WCI  12
$$

REGIONAL REPORTS...ALBERTA

CITY           SKY/WX    TMP DP  RH WIND       PRES   REMARKS
CALGARY        CLOUDY    30   5  34 W23G36    29.59S WCI  17
CARDSTON         N/A     25   9  50 W23G39      N/A  WCI  10
EDMONTON       PTSUNNY   30  18  59 SW13G18   29.54F WCI  20
FORT MCMURRAY  PTSUNNY   28  18  64 SW9       29.44S WCI  20
HIGH LEVEL     FLURRIES  25  19  80 N6        29.45R WCI  18
LETHBRIDGE     BLWGSNOW  21  14  73 W40G52    29.68S VSB 1/2 WCI   1
LLOYDMINSTER   PTSUNNY   14   7  73 S18       29.59F WCI  -3
MEDICINE HAT   SUNNY     23  12  63 S22G30    29.71F WCI   8
PEACE RIVER    FLURRIES  32  21  64 W18       29.44F WCI  20
PINCHER CREEK  HVY SNOW  18  12  79 W53G60    29.70F VSB 1/4 WCI  -7
WATERTON GATE    N/A     21   5  49 SW35G53     N/A  WCI   2
$$

REGIONAL REPORTS...SASKATCHEWAN

CITY           SKY/WX    TMP DP  RH WIND       PRES   REMARKS
CORONACH         N/A     12   3  67 S9          N/A  WCI   0
CYPRESS HILLS    N/A      0  -6  78 S10         N/A  WCI -17
ESTEVAN        MOSUNNY   12   5  73 S9        30.06S WCI   0
MOOSE JAW        N/A     19   7  58 S15G21      N/A  WCI   5
PRINCE ALBERT  MOSUNNY   18   9  68 S16G23    29.82F WCI   3
REGINA         SUNNY     16   9  73 S12       29.94F WCI   3
ROCKGLEN         N/A      9   0  66 S15         N/A  WCI  -8
SASKATOON      MOSUNNY   19   9  63 S17       29.80F WCI   4
VAL MARIE        N/A      0  -6  78 S9          N/A  WCI -16
$$




USA.gov is the U.S. government's official web portal to all federal, state and local government web resources and services.